Find Kuiper-00112

NORAD ID: 65150 Int'l Des: 2025-171 Owner: KUIP Country: US Constellation: amazon-leo operational
LEOCIRCULAR

Current View

Loading 3D Globe...

About Kuiper-00112

Description loading...

Upcoming Passes

Passes for default location (London). Set your location on the main map for personalized predictions.

Altitude History

Loading altitude history...

Two-Line Element Set

1 65150U 25171U 26146.30291495 .00002319 00000-0 33157-3 0 9992
2 65150 51.9004 172.3836 0000701 330.8397 29.2527 14.80134663 44415
Epoch: May 26, 2026 • Age: 10 hours

Current Status

Altitude 629.5 km
Velocity 7.55 km/s
Sub-Earth Point 6.08°N, 165.14°W
Launch Date Aug 11, 2025
Age 0.7 years
Type internet

Technical Details

Classification Payload
Mass 490.00 kg
Dry Mass 490.00 kg
Total Mass 490.00 kg
Length 1.80 m
Diameter 0.70 m
Span 5.00 m
Shape Box + 2 pan
Manufacturer KUIP
Bus Type Kuiper
Phase Status In Orbit
Owner/State KUIP/US

Most Searched